Tracking 31027 objects as of 19-Jul-2025
HD Live streaming from Space Station
objects crossing your sky now

DMSP 5D-2 F13 DEB

Track DMSP 5D-2 F13 DEB now!
10-day predictions


NORAD ID: 40449
Int'l Code: 1995-015BB
Perigee: 781.8 km
Apogee: 818.0 km
Inclination: 98.9 °
Period: 100.7 minutes
Semi major axis: 7170 km
RCS: Unknown
Launch date: March 24, 1995
Source: United States (US)
Launch site: AIR FORCE WESTERN TEST RANGE (AFWTR)

Note: This is SATELLITE DEBRIS
Your satellite tracking list
ST5-A
Track 1 satellite(s)




NASA's NSSDC Master Catalog

Two Line Element Set (TLE):
1 40449U 95015BB  25199.46499235  .00002991  00000-0  11800-2 0  9992
2 40449  98.9252 201.5427 0025282 147.3877 212.8872 14.29688462535840
Source of the keplerian elements: AFSPC